SCP
0 0 0 0 0 0 0 0 0 0 0 0 0 0 0 0 0 0 0 0 0 0 0 0 0 0 0 0 0 0 0 0 0 0 0 0 0 0 0 0 0 0 0 0 0 0 0 0 0 0 0 0 0 0
0 0 0 0 0 0 0 0 0 0 0 0 0 0 0 0 0 0 0 0 0 0 0 0 0 0 0 0 0 0 0 0 0 0 0 0 0 0 0 0 0 0 0 0 0 0 0 0 0 0 0 0 0 0
0 0 0 0 0 0 0 0 0 0 0 0 0 0 0 0 0 0 0 0 0 0 0 0 0 0 0 0 0 0 0 0 0 0 0 0 0 0 0 0 0 0 0 0 0 0 0 0 0 0 0 0 0 0
0 0 0 0 0 0 0 0 0 0 0 0 0 0 0 0 0 0 0 0 0 0 0 0 0 0 0 0 0 0 0 0 0 0 0 0 0 0 0 0 0 0 0 0 0 0 0 0 0 0 0 0 0 0
0 0 0 0 0 0 0 0 0 0 0 0 0 0 0 0 0 0 0 0 0 0 0 0 0 0 0 0 0 0 0 0 0 0 0 0 0 0 0 0 0 0 0 0 0 0 0 0 0 0 0 0 0 0
0 0 0 0 0 0 0 0 0 0 0 0 0 0 0 0 0 0 0 0 0 0 0 0 0 0 0 0 0 0 0 0 0 0 0 0 0 0 0 0 0 0 0 0 0 0 0 0 0 0 0 0 0 0
0 0 0 0 0 0 0 0 0 0 0 0 0 0 0 0 0 0 0 0 0 0 0 0 0 0 0 0 0 0 0 0 0 0 0 0 0 0 0 0 0 0 0 0 0 0 0 0 0 0 0 0 0 0
0 0 0 0 0 0 0 0 0 0 0 0 0 0 0 0 0 0 0 0 0 0 0 0 0 0 0 0 0 0 0 0 0 0 0 0 0 0 0 0 0 0 0 0 0 0 0 0 0 0 0 0 0 0
0 0 0 0 0 0 0 0 0 0 0 0 0 0 0 0 0 0 0 0 0 0 0 0 0 0 0 0 0 0 0 0 0 0 0 0 0 0 0 0 0 0 0 0 0 0 0 0 0 0 0 0 0 0
0 0 0 0 0 0 0 0 0 0 0 0 0 0 0 0 0 0 0 0 0 0 0 0 0 0 0 0 0 0 0 0 0 0 0 0 0 0 0 0 0 0 0 0 0 0 0 0 0 0 0 0 0 0
0 0 0 0 0 0 0 0 0 0 0 0 0 0 0 0 0 0 0 0 0 0 0 0 0 0 0 0 0 0 0 0 0 0 0 0 0 0 0 0 0 0 0 0 0 0 0 0 0 0 0 0 0 0
0 0 0 0 0 0 0 0 0 0 0 0 0 0 0 0 0 0 0 0 0 0 0 0 0 0 0 0 0 0 0 0 0 0 0 0 0 0 0 0 0 0 0 0 0 0 0 0 0 0 0 0 0 0
0 0 0 0 0 0 0 0 0 0 0 0 0 0 0 0 0 0 0 0 0 0 0 0 0 0 0 0 0 0 0 0 0 0 0 0 0 0 0 0 0 0 0 0 0 0 0 0 0 0 0 0 0 0
0 0 0 0 0 0 0 0 0 0 0 0 0 0 0 0 0 0 0 0 0 0 0 0 0 0 0 0 0 0 0 0 0 0 0 0 0 0 0 0 0 0 0 0 0 0 0 0 0 0 0 0 0 -0
0 0 0 0 0 0 0 0 0 0 0 0 0 0 0 0 0 0 0 0 0 0 0 0 0 0 0 0 0 0 0 0 0 0 0 0 0 0 0 0 0 0 0 0 0 0 0 0 0 0 0 0 0 -0
0 0 0 0 0 0 0 0 0 0 0 0 0 0 0 0 0 0 0 0 0 0 0 0 0 0 0 0 0 0 0 0 0 0 0 0 0 0 0 0 0 0 0 0 0 0 0 0 0 0 0 0 0 -0
0 0 0 0 0 0 0 0 0 0 0 0 0 0 0 0 0 0 0 0 0 0 0 0 0 0 0 0 0 0 0 0 0 0 0 0 0 -0 0 0 0 0 0 0 0 0 0 0 0 0 0 0 -0 0
0 0 0 0 0 0 0 0 0 0 0 0 0 0 0 0 0 0 0 0 0 0 0 0 0 0 0 0 0 0 0 0 0 0 0 0 -0 -0 0 0 0 0 0 0 0 0 0 0 0 0 0 0 -0 -0
0 0 0 0 0 0 0 0 0 0 0 0 -0 -0 0 0 0 0 0 0 0 0 0 0 0 0 0 0 0 0 0 0 0 0 0 0 0 0 0 0 0 0 0 0 0 0 0 0 0 0 0 -0 -0 -0
0 0 0 0 0 0 0 0 0 0 0 0 0 0 0 0 0 0 0 0 0 0 0 0 0 0 0 0 0 0 0 0 0 0 0 0 0 0 0 0 0 0 0 0 0 0 0 0 0 0 -0 -0 -0 -0
0 0 0 0 0 0 0 0 0 0 0 0 0 0 0 0 0 0 0 0 0 0 0 0 0 0 0 0 0 0 0 0 0 0 0 0 0 0 0 0 0 0 0 0 0 0 0 0 0 0 -0 -0 -0 -0
0 0 0 0 0 0 0 0 0 0 0 0 0 0 0 0 0 0 0 0 0 0 0 0 0 0 0 0 0 0 0 0 0 0 0 0 0 0 0 0 0 0 0 0 0 0 0 0 0 0 -0 -0 -0 -0
-0 0 0 0 0 0 0 0 0 0 0 0 0 0 0 0 0 0 0 0 0 0 0 0 0 0 0 0 0 0 0 0 0 0 0 0 0 0 0 0 0 0 0 0 0 0 0 0 0 -0 -0 -0 -0 -0
0 0 0 0 0 0 0 0 0 0 0 0 0 0 0 0 0 0 0 0 0 0 0 0 0 0 0 0 0 0 0 0 0 0 0 0 0 0 0 0 0 0 0 0 0 0 0 0 -0 -0 -0 -0 -0 0
0 0 0 0 0 0 0 0 0 0 0 0 0 0 0 0 0 0 0 0 0 0 0 0 0 0 0 0 0 0 0 0 0 0 0 0 0 0 0 0 0 0 0 0 0 0 0 0 -0 -0 -0 -0 0 0
0 0 0 0 0 0 0 0 0 0 0 0 0 0 0 0 0 0 0 0 0 0 0 0 0 0 0 0 0 0 0 0 0 0 0 0 0 0 0 0 0 0 0 -0 -0 -0 0 -0 -0 -0 -0 0 0 0
0 0 0 0 0 0 0 0 0 0 0 0 0 0 0 0 0 0 0 0 0 0 0 0 0 0 0 0 0 0 0 0 0 0 0 0 0 0 0 0 0 0 -0 -0 -0 -0 -0 0 -0 -0 0 0 0 0
0 0 0 0 0 0 0 0 0 0 0 0 0 0 0 0 0 0 0 0 0 0 0 0 0 0 0 0 0 0 0 0 0 0 0 0 0 0 0 0 0 0 -0 -0 -0 -0 -0 0 -0 -0 0 -0 -0 0
0 0 0 0 0 0 0 0 0 0 0 0 0 0 0 0 0 0 0 0 0 0 0 0 0 0 0 0 0 0 0 0 0 0 0 0 0 -0 0 0 0 -0 -0 -0 0 -0 -0 0 -0 -0 -0 0 0 0
0 0 0 0 0 0 0 0 0 0 0 0 0 0 0 0 0 0 0 0 0 0 0 0 0 0 0 0 0 0 0 0 0 0 -0 -0 -0 -0 -0 0 -0 -0 -0 -0 0 0 0 0 0 0 0 0 0 0
0 0 0 0 0 0 0 0 0 0 0 0 0 0 0 0 0 0 0 0 0 0 0 0 0 0 0 0 0 0 0 0 0 0 -0 -0 0 0 0 0 0 0 0 -0 -0 -0 0 0 0 0 0 0 0 0
0 0 0 0 0 0 0 0 0 0 0 0 0 0 0 0 0 0 0 0 0 0 0 0 0 0 0 0 0 0 0 0 0 0 0 0 0 0 0 0 0 0 0 0 0 0 0 0 0 0 0 0 0 0
0 0 0 0 0 0 0 -0 -0 -0 -0 -0 -0 -0 0 -0 0 0 0 0 0 0 0 0 0 0 0 0 0 0 0 0 0 0 0 0 0 0 0 0 0 0 0 0 0 0 0 0 0 0 0 0 0 0
Wind_Speed_500mb
62 49 59 60 54 55 53 51 46 43 40 40 33 27 23 19 12 10 11 10 7 7 16 14 9 9 6 6 7 6 6 3 6 6 5 4 3 3 2 5 7 9 6 6 3 4 11 7 3 9 16 37 47 47
52 54 54 60 58 51 52 52 48 47 43 43 37 32 25 23 16 12 13 15 13 13 13 13 24 23 14 9 4 8 6 7 9 8 1 4 3 2 6 5 2 2 12 8 15 11 10 14 21 35 35 38 42 43
47 52 56 51 56 55 50 52 50 52 46 44 41 36 31 27 21 16 15 13 12 12 21 20 17 27 27 21 20 9 7 10 10 9 12 5 4 7 6 9 5 5 10 7 4 8 23 27 35 40 36 41 39 48
47 47 52 53 54 57 49 56 52 54 52 48 45 40 37 32 26 22 16 15 12 7 5 6 5 10 16 14 16 20 17 15 17 13 6 5 5 15 7 6 8 11 10 7 9 20 29 31 33 36 46 34 43 48
49 47 49 55 54 54 55 54 54 49 54 58 55 49 44 38 30 23 19 20 20 10 6 12 13 19 13 17 14 7 12 18 16 8 5 6 7 5 1 2 7 18 12 8 11 33 19 30 32 40 33 34 43 52
49 48 48 51 54 50 51 63 60 56 41 59 59 58 50 44 31 21 11 20 19 12 5 6 6 11 28 27 17 10 9 13 11 7 8 8 9 8 4 5 15 23 25 26 38 28 27 33 39 32 30 39 45 54
49 51 48 48 50 54 50 52 53 56 43 41 59 58 49 45 37 29 9 14 27 14 4 10 11 5 29 28 19 18 14 7 6 5 8 7 8 17 6 7 18 28 29 32 30 28 28 22 32 29 36 42 49 58
47 48 49 47 47 51 53 43 47 46 44 41 55 54 50 45 39 38 20 20 25 11 6 3 9 4 35 15 13 17 13 15 9 7 5 9 8 9 7 25 20 19 25 27 28 26 27 24 28 32 36 41 53 59
44 43 47 45 45 45 53 52 41 41 34 46 54 58 55 47 36 41 37 25 24 14 6 9 5 8 29 17 13 16 14 3 7 9 9 14 3 9 19 29 29 30 28 23 14 19 19 21 30 34 36 46 52 58
41 39 35 40 42 42 45 61 50 39 28 37 51 35 16 29 32 42 27 21 21 15 14 13 11 6 22 27 18 12 10 6 5 9 11 6 7 41 37 34 27 16 26 27 17 16 19 26 30 37 44 47 48 55
39 34 34 33 36 41 35 43 38 31 40 48 20 18 28 54 32 19 13 12 15 7 17 19 42 11 23 9 9 16 8 6 2 7 8 4 6 11 9 9 24 17 15 13 9 13 21 24 32 42 48 47 49 56
35 34 36 35 36 31 30 37 42 35 38 42 22 40 48 17 10 11 9 13 11 12 17 19 24 38 12 13 8 12 7 5 9 9 4 6 8 9 13 16 16 18 12 7 8 21 29 34 38 44 48 47 49 54
35 35 36 36 35 41 26 43 40 47 45 31 16 14 14 10 8 18 20 9 9 16 24 28 13 26 14 16 7 6 7 9 4 2 8 8 10 24 20 22 23 14 9 5 18 26 34 32 44 47 45 44 49 54
31 33 32 30 38 38 34 36 42 49 35 12 15 11 11 8 10 9 14 12 18 19 47 50 21 13 12 9 9 8 8 6 2 2 10 6 29 25 30 22 17 14 11 12 23 33 37 38 44 44 42 44 49 55
32 31 29 30 42 37 36 33 47 52 15 12 12 8 13 15 14 14 26 14 13 18 55 33 13 9 5 7 5 6 5 9 11 9 7 20 28 30 25 22 20 16 14 17 25 30 40 45 45 44 38 40 47 53
30 29 33 29 46 35 33 27 62 42 10 9 10 5 8 8 8 16 35 32 15 34 54 20 8 6 5 7 6 12 8 11 7 8 13 28 27 22 22 22 16 14 16 22 26 34 45 47 44 37 36 42 46 51
25 31 23 32 44 37 23 46 22 13 11 8 8 17 17 17 9 13 18 33 26 40 8 10 9 11 7 6 6 8 10 7 17 24 29 24 16 12 14 16 15 13 18 25 31 40 39 50 38 35 38 41 45 52
30 24 22 37 48 38 28 18 12 11 9 14 6 5 18 13 4 10 12 25 23 22 19 8 11 5 9 9 6 7 10 18 27 26 27 23 17 9 11 8 13 15 20 29 29 33 47 40 32 34 34 39 46 53
24 35 32 47 47 30 11 11 7 9 10 6 14 18 19 6 8 19 23 25 22 29 36 14 8 4 6 4 6 22 30 27 27 27 24 24 20 8 13 19 22 23 25 27 37 46 35 28 30 30 30 40 50 44
32 33 37 49 42 20 5 6 14 4 7 8 9 17 12 9 15 14 23 25 33 19 8 7 9 14 8 9 6 16 24 27 29 30 24 22 13 0 7 11 13 21 28 32 36 34 31 28 29 26 30 45 49 35
37 47 43 47 30 7 5 9 10 10 10 7 9 20 10 19 14 15 13 21 7 6 10 13 20 26 27 24 21 15 14 14 11 8 11 11 7 9 11 14 16 20 22 24 27 23 26 28 22 23 34 42 31 26
39 42 45 39 17 11 8 14 7 11 13 9 21 10 8 9 8 16 15 15 10 13 15 18 21 33 32 33 14 8 13 16 15 14 13 12 12 12 14 20 22 24 22 18 22 21 21 19 15 24 34 25 20 21
33 45 43 16 10 12 5 27 15 15 7 18 22 9 5 9 14 23 10 12 17 22 27 29 37 34 29 33 31 23 22 20 17 12 15 17 18 18 18 19 23 28 23 24 19 6 3 9 13 25 17 20 19 14
33 14 11 13 9 10 10 7 7 9 12 13 9 8 8 16 32 14 8 12 17 32 40 42 42 41 34 25 27 36 33 26 23 20 22 22 21 22 21 19 24 23 22 21 18 9 4 7 13 15 5 10 22 21
10 10 12 7 8 10 8 8 9 7 9 8 10 8 8 19 8 9 6 3 20 15 27 41 43 41 40 35 33 26 20 20 24 29 24 20 22 23 18 20 21 22 23 17 20 19 13 3 10 4 6 11 8 18
5 12 15 18 14 10 10 8 12 12 7 4 9 4 11 6 6 4 4 8 16 21 20 27 30 31 33 31 22 17 13 12 13 21 22 19 21 15 15 21 22 16 8 13 20 20 1 10 6 10 14 10 15 23
2 10 13 15 12 13 8 6 6 4 6 7 6 7 4 6 6 3 11 14 20 22 18 21 20 16 17 22 18 10 10 18 21 16 12 11 14 16 13 10 14 12 6 7 25 14 11 10 10 23 24 23 28 33
8 6 7 12 9 6 6 6 6 1 4 7 3 6 6 5 4 8 12 15 16 18 16 14 22 23 22 20 14 13 12 11 11 9 8 9 8 9 5 4 9 8 14 11 10 20 26 21 18 27 37 44 36 24
7 8 22 12 11 12 11 6 5 4 5 1 6 4 5 7 15 20 20 15 13 13 17 19 18 19 22 18 15 17 16 15 14 12 15 16 16 14 14 11 16 16 21 23 19 19 39 19 14 29 38 33 26 18
12 13 11 13 9 7 9 9 21 24 22 19 14 15 14 15 18 15 15 14 15 16 13 16 18 16 17 21 18 15 14 13 17 13 13 16 12 9 10 14 18 19 32 28 19 26 30 24 19 15 13 11 13 22
7 9 12 11 8 12 22 21 19 18 20 20 17 15 10 7 9 11 14 16 17 19 22 20 19 14 10 19 21 20 22 18 13 12 11 5 17 6 13 23 28 25 34 33 31 29 27 24 19 17 19 21 19 20
9 8 11 6 6 9 8 5 8 9 9 9 8 4 3 3 4 6 13 20 28 33 34 32 30 31 24 19 16 27 24 21 16 14 9 10 18 29 23 31 26 27 32 38 38 31 27 26 26 25 23 25 24 22
15 20 18 10 6 4 5 6 5 5 5 4 3 2 2 4 6 7 10 12 16 18 21 30 36 42 43 33 26 21 16 15 22 18 11 5 10 7 10 25 26 28 30 35 35 30 25 26 26 25 24 22 22 23
Wind_Direction_500mb
252 254 251 250 254 253 252 246 247 249 252 255 254 259 264 266 265 272 245 270 300 267 273 245 238 220 200 200 144 156 71 347 55 79 129 220 164 266 47 238 185 174 153 218 60 268 294 208 266 130 252 304 311 315
253 249 255 251 251 255 246 242 244 245 245 249 245 245 248 250 246 248 235 258 287 280 268 265 236 234 233 238 203 177 156 154 158 94 132 107 219 56 152 261 3 265 180 194 174 220 239 255 274 311 290 300 310 310
257 249 244 248 243 248 248 242 243 241 239 240 240 239 238 241 238 240 242 250 289 293 286 270 252 240 226 245 236 216 195 187 177 151 150 152 210 130 173 240 214 273 181 196 73 258 249 270 297 305 305 300 308 316
258 254 247 245 246 243 244 240 245 242 236 234 239 231 231 233 233 231 240 250 265 273 287 256 198 168 195 212 213 225 244 194 165 165 136 134 177 192 212 226 182 227 159 202 260 281 284 278 298 314 320 301 310 322
253 254 250 241 243 243 243 243 248 244 235 231 235 229 227 223 226 228 238 243 244 229 254 283 266 214 198 202 205 201 187 171 166 156 121 214 216 163 191 65 247 188 193 160 235 282 245 276 315 320 308 305 323 328
249 250 251 248 241 242 246 242 244 249 238 237 226 222 218 213 213 209 219 223 212 207 274 305 247 228 202 200 208 203 199 204 189 188 188 227 225 192 142 222 252 215 223 255 262 284 279 298 313 314 299 317 331 330
252 245 246 247 244 238 243 248 247 237 234 254 220 210 202 206 207 188 207 192 185 184 243 298 301 212 190 184 193 192 195 183 195 219 218 227 216 192 147 212 248 259 290 266 267 265 283 307 317 309 311 323 326 329
259 246 243 243 242 241 234 238 243 235 226 245 206 203 200 207 204 203 177 170 175 201 218 204 272 218 185 175 183 189 187 202 222 238 225 216 181 211 247 238 264 252 249 245 254 273 297 300 315 324 318 319 323 329
257 258 241 238 239 241 234 233 247 230 223 229 201 196 200 202 196 202 201 200 203 222 224 187 201 227 177 188 176 169 184 151 206 222 232 163 203 226 227 230 234 237 230 248 262 278 293 309 325 332 320 321 324 331
252 259 242 236 235 237 236 229 242 227 206 218 199 179 180 177 181 173 159 173 192 208 225 226 202 245 183 179 178 152 177 196 179 237 160 182 246 253 256 247 248 265 254 240 270 275 307 321 333 335 327 320 324 332
248 241 241 236 232 233 222 220 227 223 203 183 172 165 163 161 150 167 147 162 175 224 215 217 200 187 197 141 191 202 172 165 163 253 154 245 276 255 279 270 247 237 211 234 236 298 321 331 335 332 331 320 323 332
244 236 239 240 226 215 207 216 224 222 186 185 181 146 146 172 151 156 172 168 195 213 197 184 201 200 174 183 154 182 164 112 230 160 144 266 248 241 157 161 168 174 191 209 318 327 327 327 331 330 321 318 325 333
242 238 242 242 216 200 211 202 210 226 191 157 159 155 166 180 164 180 182 183 195 195 177 161 141 159 167 191 122 125 145 220 129 124 224 225 201 169 175 165 164 185 215 317 337 337 332 326 337 330 317 317 326 334
236 235 240 238 200 199 208 201 198 202 188 169 169 172 204 183 223 189 182 185 198 189 168 159 145 149 154 141 149 139 214 115 124 237 231 233 186 176 163 167 186 223 255 317 334 340 341 329 334 328 316 317 327 335
236 239 231 228 192 199 200 197 197 194 163 186 173 214 208 219 212 210 188 181 161 173 163 150 99 123 131 124 174 106 141 232 202 219 225 196 185 178 187 208 225 243 274 311 326 330 334 329 326 321 315 318 330 335
222 221 219 209 187 190 188 201 191 190 182 212 195 236 254 186 221 200 193 201 144 161 157 145 114 112 163 148 133 201 178 215 238 215 178 159 166 183 205 218 231 255 287 312 318 323 325 327 319 310 311 324 329 339
208 215 219 198 176 184 183 181 159 156 199 227 229 224 246 296 253 201 172 198 187 163 136 133 121 183 116 134 209 183 197 207 178 158 159 167 169 179 220 225 211 262 288 313 313 314 319 328 317 305 315 324 333 340
213 186 176 171 174 174 182 178 155 162 190 230 228 182 231 256 281 157 161 169 169 155 138 142 115 115 169 184 230 219 187 156 167 168 171 168 164 165 191 220 245 268 297 310 310 311 316 322 310 306 314 326 334 334
194 181 168 168 178 181 134 171 173 166 197 211 222 184 210 284 160 156 164 167 165 163 127 115 101 177 224 221 232 159 150 154 154 161 169 182 192 239 263 268 277 274 287 300 310 314 312 309 299 302 318 331 330 336
192 180 172 175 166 181 145 108 171 132 185 200 202 162 162 189 181 172 162 162 149 136 121 142 157 197 167 87 147 149 139 143 144 135 137 151 158 88 338 318 298 292 296 299 303 315 308 290 298 309 325 328 327 335
187 174 163 173 190 132 148 158 156 185 192 199 172 141 126 162 167 180 178 166 186 170 157 186 183 172 157 157 142 143 163 174 184 189 186 198 241 293 312 321 313 310 311 316 322 314 287 279 301 318 328 324 342 4
187 187 166 166 184 181 176 187 177 177 178 172 156 172 139 165 181 198 186 195 227 216 199 200 219 205 202 223 220 225 245 249 232 208 207 232 246 275 292 307 303 311 315 310 328 321 278 283 305 327 321 343 9 1
185 142 147 152 169 195 185 166 182 180 163 169 150 132 195 196 199 158 193 232 231 210 211 211 207 188 205 218 212 228 255 252 227 270 282 266 256 265 276 295 309 319 293 287 302 337 316 288 314 322 351 21 12 23
179 140 154 152 137 170 166 177 171 170 167 163 169 172 190 179 163 183 217 219 216 213 208 210 207 209 218 229 246 253 250 237 243 263 274 267 268 265 282 300 312 297 277 279 284 235 279 275 296 343 64 46 40 25
137 145 143 133 150 151 169 178 174 194 177 157 189 210 151 161 159 191 214 114 172 211 228 216 215 215 221 230 240 237 239 247 257 275 269 265 288 284 283 276 262 264 276 265 225 194 170 264 327 5 152 106 60 54
147 183 167 190 174 180 181 173 182 193 111 162 217 147 134 139 168 107 53 84 137 163 179 195 207 214 223 236 253 245 255 239 242 263 262 273 287 283 288 275 247 258 261 239 202 159 35 245 2 160 137 123 99 95
251 196 198 205 182 154 159 143 91 107 149 201 164 154 138 119 96 87 97 89 106 100 117 123 142 164 180 173 184 207 249 257 264 261 245 262 251 270 260 248 213 200 130 7 194 233 208 175 116 148 134 127 133 105
265 188 151 174 113 122 108 90 127 257 341 344 133 50 77 61 119 133 126 108 109 121 119 146 163 146 145 151 159 176 191 206 155 152 173 167 139 142 179 222 203 198 190 194 189 191 176 106 67 131 127 115 116 106
37 82 125 78 81 64 46 51 92 85 315 357 94 77 100 110 138 145 148 151 135 135 132 107 120 155 167 165 172 176 171 188 190 171 182 183 187 193 232 261 220 230 194 176 192 192 182 169 128 111 115 119 108 100
28 53 84 51 49 48 16 76 94 80 79 89 100 107 106 123 142 155 167 184 201 195 166 147 122 129 167 192 175 180 193 224 232 221 225 242 260 270 230 186 177 178 178 180 163 136 144 157 162 162 152 138 116 134
70 76 73 65 61 65 98 97 89 80 81 76 96 110 112 152 191 219 218 217 219 221 216 202 193 174 156 156 154 156 138 133 123 98 87 144 210 224 175 153 155 158 167 158 153 148 152 165 172 172 165 150 148 158
51 68 115 103 117 117 127 47 51 60 45 45 46 48 326 305 276 272 260 254 245 239 236 232 212 209 205 174 162 142 169 184 188 156 174 59 86 142 161 154 149 156 162 163 161 160 158 154 157 161 164 169 167 161
87 85 92 97 105 138 130 112 81 101 82 82 78 116 220 226 262 281 295 268 252 251 247 229 210 205 210 195 174 170 170 166 189 208 178 210 187 120 188 188 170 166 175 176 171 168 170 176 162 158 161 155 159 147
Wind_Speed_850mb
62 49 59 60 54 55 53 51 46 43 40 40 33 27 23 19 12 10 11 10 7 7 16 14 9 9 6 6 7 6 6 3 6 6 5 4 3 3 2 5 7 9 6 6 3 4 11 7 3 9 16 37 47 47
52 54 54 60 58 51 52 52 48 47 43 43 37 32 25 23 16 12 13 15 13 13 13 13 24 23 14 9 4 8 6 7 9 8 1 4 3 2 6 5 2 2 12 8 15 11 10 14 21 35 35 38 42 43
47 52 56 51 56 55 50 52 50 52 46 44 41 36 31 27 21 16 15 13 12 12 21 20 17 27 27 21 20 9 7 10 10 9 12 5 4 7 6 9 5 5 10 7 4 8 23 27 35 40 36 41 39 48
47 47 52 53 54 57 49 56 52 54 52 48 45 40 37 32 26 22 16 15 12 7 5 6 5 10 16 14 16 20 17 15 17 13 6 5 5 15 7 6 8 11 10 7 9 20 29 31 33 36 46 34 43 48
49 47 49 55 54 54 55 54 54 49 54 58 55 49 44 38 30 23 19 20 20 10 6 12 13 19 13 17 14 7 12 18 16 8 5 6 7 5 1 2 7 18 12 8 11 33 19 30 32 40 33 34 43 52
49 48 48 51 54 50 51 63 60 56 41 59 59 58 50 44 31 21 11 20 19 12 5 6 6 11 28 27 17 10 9 13 11 7 8 8 9 8 4 5 15 23 25 26 38 28 27 33 39 32 30 39 45 54
49 51 48 48 50 54 50 52 53 56 43 41 59 58 49 45 37 29 9 14 27 14 4 10 11 5 29 28 19 18 14 7 6 5 8 7 8 17 6 7 18 28 29 32 30 28 28 22 32 29 36 42 49 58
47 48 49 47 47 51 53 43 47 46 44 41 55 54 50 45 39 38 20 20 25 11 6 3 9 4 35 15 13 17 13 15 9 7 5 9 8 9 7 25 20 19 25 27 28 26 27 24 28 32 36 41 53 59
44 43 47 45 45 45 53 52 41 41 34 46 54 58 55 47 36 41 37 25 24 14 6 9 5 8 29 17 13 16 14 3 7 9 9 14 3 9 19 29 29 30 28 23 14 19 19 21 30 34 36 46 52 58
41 39 35 40 42 42 45 61 50 39 28 37 51 35 16 29 32 42 27 21 21 15 14 13 11 6 22 27 18 12 10 6 5 9 11 6 7 41 37 34 27 16 26 27 17 16 19 26 30 37 44 47 48 55
39 34 34 33 36 41 35 43 38 31 40 48 20 18 28 54 32 19 13 12 15 7 17 19 42 11 23 9 9 16 8 6 2 7 8 4 6 11 9 9 24 17 15 13 9 13 21 24 32 42 48 47 49 56
35 34 36 35 36 31 30 37 42 35 38 42 22 40 48 17 10 11 9 13 11 12 17 19 24 38 12 13 8 12 7 5 9 9 4 6 8 9 13 16 16 18 12 7 8 21 29 34 38 44 48 47 49 54
35 35 36 36 35 41 26 43 40 47 45 31 16 14 14 10 8 18 20 9 9 16 24 28 13 26 14 16 7 6 7 9 4 2 8 8 10 24 20 22 23 14 9 5 18 26 34 32 44 47 45 44 49 54
31 33 32 30 38 38 34 36 42 49 35 12 15 11 11 8 10 9 14 12 18 19 47 50 21 13 12 9 9 8 8 6 2 2 10 6 29 25 30 22 17 14 11 12 23 33 37 38 44 44 42 44 49 55
32 31 29 30 42 37 36 33 47 52 15 12 12 8 13 15 14 14 26 14 13 18 55 33 13 9 5 7 5 6 5 9 11 9 7 20 28 30 25 22 20 16 14 17 25 30 40 45 45 44 38 40 47 53
30 29 33 29 46 35 33 27 62 42 10 9 10 5 8 8 8 16 35 32 15 34 54 20 8 6 5 7 6 12 8 11 7 8 13 28 27 22 22 22 16 14 16 22 26 34 45 47 44 37 36 42 46 51
25 31 23 32 44 37 23 46 22 13 11 8 8 17 17 17 9 13 18 33 26 40 8 10 9 11 7 6 6 8 10 7 17 24 29 24 16 12 14 16 15 13 18 25 31 40 39 50 38 35 38 41 45 52
30 24 22 37 48 38 28 18 12 11 9 14 6 5 18 13 4 10 12 25 23 22 19 8 11 5 9 9 6 7 10 18 27 26 27 23 17 9 11 8 13 15 20 29 29 33 47 40 32 34 34 39 46 53
24 35 32 47 47 30 11 11 7 9 10 6 14 18 19 6 8 19 23 25 22 29 36 14 8 4 6 4 6 22 30 27 27 27 24 24 20 8 13 19 22 23 25 27 37 46 35 28 30 30 30 40 50 44
32 33 37 49 42 20 5 6 14 4 7 8 9 17 12 9 15 14 23 25 33 19 8 7 9 14 8 9 6 16 24 27 29 30 24 22 13 0 7 11 13 21 28 32 36 34 31 28 29 26 30 45 49 35
37 47 43 47 30 7 5 9 10 10 10 7 9 20 10 19 14 15 13 21 7 6 10 13 20 26 27 24 21 15 14 14 11 8 11 11 7 9 11 14 16 20 22 24 27 23 26 28 22 23 34 42 31 26
39 42 45 39 17 11 8 14 7 11 13 9 21 10 8 9 8 16 15 15 10 13 15 18 21 33 32 33 14 8 13 16 15 14 13 12 12 12 14 20 22 24 22 18 22 21 21 19 15 24 34 25 20 21
33 45 43 16 10 12 5 27 15 15 7 18 22 9 5 9 14 23 10 12 17 22 27 29 37 34 29 33 31 23 22 20 17 12 15 17 18 18 18 19 23 28 23 24 19 6 3 9 13 25 17 20 19 14
33 14 11 13 9 10 10 7 7 9 12 13 9 8 8 16 32 14 8 12 17 32 40 42 42 41 34 25 27 36 33 26 23 20 22 22 21 22 21 19 24 23 22 21 18 9 4 7 13 15 5 10 22 21
10 10 12 7 8 10 8 8 9 7 9 8 10 8 8 19 8 9 6 3 20 15 27 41 43 41 40 35 33 26 20 20 24 29 24 20 22 23 18 20 21 22 23 17 20 19 13 3 10 4 6 11 8 18
5 12 15 18 14 10 10 8 12 12 7 4 9 4 11 6 6 4 4 8 16 21 20 27 30 31 33 31 22 17 13 12 13 21 22 19 21 15 15 21 22 16 8 13 20 20 1 10 6 10 14 10 15 23
2 10 13 15 12 13 8 6 6 4 6 7 6 7 4 6 6 3 11 14 20 22 18 21 20 16 17 22 18 10 10 18 21 16 12 11 14 16 13 10 14 12 6 7 25 14 11 10 10 23 24 23 28 33
8 6 7 12 9 6 6 6 6 1 4 7 3 6 6 5 4 8 12 15 16 18 16 14 22 23 22 20 14 13 12 11 11 9 8 9 8 9 5 4 9 8 14 11 10 20 26 21 18 27 37 44 36 24
7 8 22 12 11 12 11 6 5 4 5 1 6 4 5 7 15 20 20 15 13 13 17 19 18 19 22 18 15 17 16 15 14 12 15 16 16 14 14 11 16 16 21 23 19 19 39 19 14 29 38 33 26 18
12 13 11 13 9 7 9 9 21 24 22 19 14 15 14 15 18 15 15 14 15 16 13 16 18 16 17 21 18 15 14 13 17 13 13 16 12 9 10 14 18 19 32 28 19 26 30 24 19 15 13 11 13 22
7 9 12 11 8 12 22 21 19 18 20 20 17 15 10 7 9 11 14 16 17 19 22 20 19 14 10 19 21 20 22 18 13 12 11 5 17 6 13 23 28 25 34 33 31 29 27 24 19 17 19 21 19 20
9 8 11 6 6 9 8 5 8 9 9 9 8 4 3 3 4 6 13 20 28 33 34 32 30 31 24 19 16 27 24 21 16 14 9 10 18 29 23 31 26 27 32 38 38 31 27 26 26 25 23 25 24 22
15 20 18 10 6 4 5 6 5 5 5 4 3 2 2 4 6 7 10 12 16 18 21 30 36 42 43 33 26 21 16 15 22 18 11 5 10 7 10 25 26 28 30 35 35 30 25 26 26 25 24 22 22 23
Wind_Direction_850mb
252 254 251 250 254 253 252 246 247 249 252 255 254 259 264 266 265 272 245 270 300 267 273 245 238 220 200 200 144 156 71 347 55 79 129 220 164 266 47 238 185 174 153 218 60 268 294 208 266 130 252 304 311 315
253 249 255 251 251 255 246 242 244 245 245 249 245 245 248 250 246 248 235 258 287 280 268 265 236 234 233 238 203 177 156 154 158 94 132 107 219 56 152 261 3 265 180 194 174 220 239 255 274 311 290 300 310 310
257 249 244 248 243 248 248 242 243 241 239 240 240 239 238 241 238 240 242 250 289 293 286 270 252 240 226 245 236 216 195 187 177 151 150 152 210 130 173 240 214 273 181 196 73 258 249 270 297 305 305 300 308 316
258 254 247 245 246 243 244 240 245 242 236 234 239 231 231 233 233 231 240 250 265 273 287 256 198 168 195 212 213 225 244 194 165 165 136 134 177 192 212 226 182 227 159 202 260 281 284 278 298 314 320 301 310 322
253 254 250 241 243 243 243 243 248 244 235 231 235 229 227 223 226 228 238 243 244 229 254 283 266 214 198 202 205 201 187 171 166 156 121 214 216 163 191 65 247 188 193 160 235 282 245 276 315 320 308 305 323 328
249 250 251 248 241 242 246 242 244 249 238 237 226 222 218 213 213 209 219 223 212 207 274 305 247 228 202 200 208 203 199 204 189 188 188 227 225 192 142 222 252 215 223 255 262 284 279 298 313 314 299 317 331 330
252 245 246 247 244 238 243 248 247 237 234 254 220 210 202 206 207 188 207 192 185 184 243 298 301 212 190 184 193 192 195 183 195 219 218 227 216 192 147 212 248 259 290 266 267 265 283 307 317 309 311 323 326 329
259 246 243 243 242 241 234 238 243 235 226 245 206 203 200 207 204 203 177 170 175 201 218 204 272 218 185 175 183 189 187 202 222 238 225 216 181 211 247 238 264 252 249 245 254 273 297 300 315 324 318 319 323 329
257 258 241 238 239 241 234 233 247 230 223 229 201 196 200 202 196 202 201 200 203 222 224 187 201 227 177 188 176 169 184 151 206 222 232 163 203 226 227 230 234 237 230 248 262 278 293 309 325 332 320 321 324 331
252 259 242 236 235 237 236 229 242 227 206 218 199 179 180 177 181 173 159 173 192 208 225 226 202 245 183 179 178 152 177 196 179 237 160 182 246 253 256 247 248 265 254 240 270 275 307 321 333 335 327 320 324 332
248 241 241 236 232 233 222 220 227 223 203 183 172 165 163 161 150 167 147 162 175 224 215 217 200 187 197 141 191 202 172 165 163 253 154 245 276 255 279 270 247 237 211 234 236 298 321 331 335 332 331 320 323 332
244 236 239 240 226 215 207 216 224 222 186 185 181 146 146 172 151 156 172 168 195 213 197 184 201 200 174 183 154 182 164 112 230 160 144 266 248 241 157 161 168 174 191 209 318 327 327 327 331 330 321 318 325 333
242 238 242 242 216 200 211 202 210 226 191 157 159 155 166 180 164 180 182 183 195 195 177 161 141 159 167 191 122 125 145 220 129 124 224 225 201 169 175 165 164 185 215 317 337 337 332 326 337 330 317 317 326 334
236 235 240 238 200 199 208 201 198 202 188 169 169 172 204 183 223 189 182 185 198 189 168 159 145 149 154 141 149 139 214 115 124 237 231 233 186 176 163 167 186 223 255 317 334 340 341 329 334 328 316 317 327 335
236 239 231 228 192 199 200 197 197 194 163 186 173 214 208 219 212 210 188 181 161 173 163 150 99 123 131 124 174 106 141 232 202 219 225 196 185 178 187 208 225 243 274 311 326 330 334 329 326 321 315 318 330 335
222 221 219 209 187 190 188 201 191 190 182 212 195 236 254 186 221 200 193 201 144 161 157 145 114 112 163 148 133 201 178 215 238 215 178 159 166 183 205 218 231 255 287 312 318 323 325 327 319 310 311 324 329 339
208 215 219 198 176 184 183 181 159 156 199 227 229 224 246 296 253 201 172 198 187 163 136 133 121 183 116 134 209 183 197 207 178 158 159 167 169 179 220 225 211 262 288 313 313 314 319 328 317 305 315 324 333 340
213 186 176 171 174 174 182 178 155 162 190 230 228 182 231 256 281 157 161 169 169 155 138 142 115 115 169 184 230 219 187 156 167 168 171 168 164 165 191 220 245 268 297 310 310 311 316 322 310 306 314 326 334 334
194 181 168 168 178 181 134 171 173 166 197 211 222 184 210 284 160 156 164 167 165 163 127 115 101 177 224 221 232 159 150 154 154 161 169 182 192 239 263 268 277 274 287 300 310 314 312 309 299 302 318 331 330 336
192 180 172 175 166 181 145 108 171 132 185 200 202 162 162 189 181 172 162 162 149 136 121 142 157 197 167 87 147 149 139 143 144 135 137 151 158 88 338 318 298 292 296 299 303 315 308 290 298 309 325 328 327 335
187 174 163 173 190 132 148 158 156 185 192 199 172 141 126 162 167 180 178 166 186 170 157 186 183 172 157 157 142 143 163 174 184 189 186 198 241 293 312 321 313 310 311 316 322 314 287 279 301 318 328 324 342 4
187 187 166 166 184 181 176 187 177 177 178 172 156 172 139 165 181 198 186 195 227 216 199 200 219 205 202 223 220 225 245 249 232 208 207 232 246 275 292 307 303 311 315 310 328 321 278 283 305 327 321 343 9 1
185 142 147 152 169 195 185 166 182 180 163 169 150 132 195 196 199 158 193 232 231 210 211 211 207 188 205 218 212 228 255 252 227 270 282 266 256 265 276 295 309 319 293 287 302 337 316 288 314 322 351 21 12 23
179 140 154 152 137 170 166 177 171 170 167 163 169 172 190 179 163 183 217 219 216 213 208 210 207 209 218 229 246 253 250 237 243 263 274 267 268 265 282 300 312 297 277 279 284 235 279 275 296 343 64 46 40 25
137 145 143 133 150 151 169 178 174 194 177 157 189 210 151 161 159 191 214 114 172 211 228 216 215 215 221 230 240 237 239 247 257 275 269 265 288 284 283 276 262 264 276 265 225 194 170 264 327 5 152 106 60 54
147 183 167 190 174 180 181 173 182 193 111 162 217 147 134 139 168 107 53 84 137 163 179 195 207 214 223 236 253 245 255 239 242 263 262 273 287 283 288 275 247 258 261 239 202 159 35 245 2 160 137 123 99 95
251 196 198 205 182 154 159 143 91 107 149 201 164 154 138 119 96 87 97 89 106 100 117 123 142 164 180 173 184 207 249 257 264 261 245 262 251 270 260 248 213 200 130 7 194 233 208 175 116 148 134 127 133 105
265 188 151 174 113 122 108 90 127 257 341 344 133 50 77 61 119 133 126 108 109 121 119 146 163 146 145 151 159 176 191 206 155 152 173 167 139 142 179 222 203 198 190 194 189 191 176 106 67 131 127 115 116 106
37 82 125 78 81 64 46 51 92 85 315 357 94 77 100 110 138 145 148 151 135 135 132 107 120 155 167 165 172 176 171 188 190 171 182 183 187 193 232 261 220 230 194 176 192 192 182 169 128 111 115 119 108 100
28 53 84 51 49 48 16 76 94 80 79 89 100 107 106 123 142 155 167 184 201 195 166 147 122 129 167 192 175 180 193 224 232 221 225 242 260 270 230 186 177 178 178 180 163 136 144 157 162 162 152 138 116 134
70 76 73 65 61 65 98 97 89 80 81 76 96 110 112 152 191 219 218 217 219 221 216 202 193 174 156 156 154 156 138 133 123 98 87 144 210 224 175 153 155 158 167 158 153 148 152 165 172 172 165 150 148 158
51 68 115 103 117 117 127 47 51 60 45 45 46 48 326 305 276 272 260 254 245 239 236 232 212 209 205 174 162 142 169 184 188 156 174 59 86 142 161 154 149 156 162 163 161 160 158 154 157 161 164 169 167 161
87 85 92 97 105 138 130 112 81 101 82 82 78 116 220 226 262 281 295 268 252 251 247 229 210 205 210 195 174 170 170 166 189 208 178 210 187 120 188 188 170 166 175 176 171 168 170 176 162 158 161 155 159 147